Regional Weather Roundup
Issued by NWS

Home | Current Version | Previous Version | Text Only | Print | Product List | Glossary On
Versions: 1 2 3 4 5 6 7 8 9 10 11 12 13 14 15 16 17 18 19 20 21 22 23 24 25 26 27 28 29 30 31 32 33 34 35 36 37 38 39 40 41 42 43 44 45 46 47 48 49 50
000
ASUS45 KPSR 111110
RWRAZ

ARIZONA HOURLY REGIONAL WEATHER ROUNDUP
NATIONAL WEATHER SERVICE PHOENIX AZ
400 AM MST THU FEB 11 2016

NOTE: FAIR INDICATES FEW OR NO CLOUDS BELOW 12,000 FEET WITH NO
SIGNIFICANT WEATHER AND/OR OBSTRUCTIONS TO VISIBILITY.

AZZ001>003-036-111200-
NORTHWEST ARIZONA

CITY           SKY/WX    TMP DP  RH WIND       PRES   REMARKS
BULLHEAD CITY  CLEAR     59  32  36 N5        30.17S
KINGMAN        PTCLDY    35  32  88 E3        30.25S
$$

AZZ004>008-015-016-018-111200-
NORTH CENTRAL ARIZONA

CITY           SKY/WX    TMP DP  RH WIND       PRES   REMARKS
GRAND CANYON   MOCLDY    21  16  81 NE5       30.37S WCI  15
WILLIAMS       PTCLDY    27  18  69 S12       30.41S WCI  16
PRESCOTT       MOCLDY    32  20  61 SW6       30.31R WCI  26
FLAGSTAFF      PTCLDY    20  15  81 CALM      30.38S
PAYSON         CLEAR     43  19  39 CALM      30.30S
PAGE           PTCLDY    34  28  79 CALM      30.35R
$$

AZZ009>014-017-111200-
NORTHEAST ARIZONA

CITY           SKY/WX    TMP DP  RH WIND       PRES   REMARKS
WINSLOW        MOCLDY    23  16  74 E3        30.36R
SAINT JOHNS    CLEAR     20  14  77 CALM      30.35S
WINDOW ROCK    CLEAR     26   0  32 CALM      30.37S
SHOW LOW       CLEAR     25  14  63 CALM      30.37S
$$

AZZ023-111200-
GREATER PHOENIX AREA

CITY           SKY/WX    TMP DP  RH WIND       PRES   REMARKS
PHOENIX        PTCLDY    59  34  39 CALM      30.11S
BUCKEYE        CLEAR     50  28  43 NE7       30.14S
LUKE AFB       CLEAR     51  31  47 CALM      30.11S
DEER VALLEY    CLEAR     56  30  37 CALM      30.12R
SCOTTSDALE     CLEAR     54  34  46 NE3       30.14R
MESA-GATEWAY   CLEAR     52  32  46 E9        30.14S
$$

AZZ027-028-111200-
SOUTHWEST MARICOPA COUNTY AND PINAL COUNTY

CITY           SKY/WX    TMP DP  RH WIND       PRES   REMARKS
CASA GRANDE    PTCLDY    46  28  49 CALM      30.14S
GILA BEND      FAIR      49  28  42 SE1       30.10F
$$

AZZ503-504-507>509-111200-
SOUTHEAST ARIZONA

CITY           SKY/WX    TMP DP  RH WIND       PRES   REMARKS
TUCSON         CLEAR     49  21  33 SE10      30.21R
DAVIS-MONTHAN  CLEAR     49  20  32 S5        30.19R
NOGALES        CLEAR     39  19  44 S5        30.24R
DOUGLAS        PTCLDY    35  14  42 SE3       30.25S
SAFFORD        CLEAR     38  23  55 SE3       30.22R
$$

AZZ020-021-025-026-031-111200-
SOUTHWEST ARIZONA

CITY           SKY/WX    TMP DP  RH WIND       PRES   REMARKS
YUMA           CLEAR     59  29  31 N7        30.09F
$$

CAZ031-033-041-043-047-048-061-111200-
SOUTHERN CALIFORNIA

CITY           SKY/WX    TMP DP  RH WIND       PRES   REMARKS
DOWNTOWN L.A.  CLEAR     63  34  33 N3        30.07F
L.A. AIRPORT   PTCLDY    62  35  36 NE3       30.08S
SAN DIEGO      CLEAR     59  37  44 CALM      30.08F
BURBANK        CLEAR     57  32  38 CALM      30.09F
ONTARIO        CLEAR     55  36  48 CALM      30.11F
RIVERSIDE      CLEAR     57  30  35 NE6       30.12S
PALM SPRINGS   CLEAR     58  29  33 N9        30.13F
EL CENTRO NAS  CLEAR     52  23  32 W7        30.11S
IMPERIAL       CLEAR     52  28  39 W5        30.09F
BLYTHE         CLEAR     56  24  29 SW6       30.13S
NEEDLES        CLEAR     53  26  35 SW7       30.16F
$$

NVZ020-UTZ003-111200-
SOUTHERN NEVADA-UTAH

CITY           SKY/WX    TMP DP  RH WIND       PRES   REMARKS
LAS VEGAS      PTCLDY    49  26  41 SW6       30.20S
SALT LAKE CITY CLOUDY    29  27  92 CALM      30.45S FOG
$$

NMZ009-TXZ055-111200-
NEW MEXICO-WEST TEXAS

CITY           SKY/WX    TMP DP  RH WIND       PRES   REMARKS
ALBUQUERQUE    CLOUDY    40  22  48 NE9       30.31S WCI  34
EL PASO        MOCLDY    40  17  39 N7        30.22S
$$


........................KEY........................
SKY/WX - SKY CONDITION/WEATHER
TMP    - TEMPERATURE IN FAHRENHEIT
DP     - DEW POINT IN FAHRENHEIT
RH     - RELATIVE HUMIDITY IN PERCENT
WIND   - DIRECTION AND SPEED IN MILES PER HOUR (MPH)
VRB    - VARIABLE WIND DIRECTION
PRES   - MEAN SEA LEVEL PRESSURE IN INCHES OF MERCURY
         F - FALLING PRESSURE   R - RISING PRESSURE
         S - STEADY PRESSURE
VSB    - VISIBILITY IN MILES
HX     - HEAT INDEX IN FAHRENHEIT
WCI    - WIND CHILL INDEX IN FAHRENHEIT
TC     - TEMPERATURE IN CELSIUS WHICH IS ALSO KNOWN AS
         TEMPERATURE IN CENTIGRADE
AFB    - AIR FORCE BASE
         LUKE AFB IS LUKE AIR FORCE BASE
         DAVIS-MONTHAN IS DAVIS-MONTHAN AIR FORCE BASE
NAS    - NAVAL AIR STATION
         EL CENTRO NAS IS EL CENTRO NAVAL AIR STATION
N/A    - NOT AVAILABLE




USA.gov is the U.S. government's official web portal to all federal, state and local government web resources and services.